This is the latest recevied weather packets stored in our database for station/object iz1wiy-2. If no packets are shown the sender has not sent any weather packets the latest 1 day(s).
| Time | Temp. | Humidity | Pressure | Rain* | Wind** | Luminosity | Snow |
|---|---|---|---|---|---|---|---|
| 1778029803 | 16.11° C | 85% | 1009.5 hPa | 0 mm | 0.45 m/s, 7° | - | - |
| 1778029503 | 16.11° C | 85% | 1009.6 hPa | 0 mm | 0.45 m/s, 349° | - | - |
| 1778029203 | 16.11° C | 85% | 1009.6 hPa | 0 mm | 0.45 m/s, 355° | - | - |
| 1778028904 | 16.67° C | 85% | 1009.7 hPa | 0 mm | 0 m/s | - | - |
| 1778028603 | 16.67° C | 85% | 1009.6 hPa | 0 mm | 0.45 m/s, 301° | - | - |
| 1778028303 | 16.67° C | 85% | 1009.7 hPa | 0.25 mm | 0.89 m/s, 296° | - | - |
| 1778028003 | 16.67° C | 84% | 1009.9 hPa | 0.25 mm | 1.34 m/s, 221° | - | - |
| 1778027703 | 16.67° C | 85% | 1010 hPa | 0.25 mm | 1.34 m/s, 211° | - | - |
| 1778027403 | 16.67° C | 85% | 1010.1 hPa | 0.25 mm | 0.89 m/s, 203° | - | - |
| 1778027103 | 16.67° C | 85% | 1010 hPa | 0.25 mm | 0.45 m/s, 201° | - | - |
| 1778026803 | 16.67° C | 85% | 1010.1 hPa | 0.51 mm | 0.45 m/s, 209° | - | - |
| 1778026503 | 16.67° C | 85% | 1009.9 hPa | 0.51 mm | 0.45 m/s, 205° | - | - |
| 1778026203 | 17.22° C | 85% | 1010 hPa | 0.51 mm | 0.45 m/s, 218° | - | - |
| 1778025903 | 16.67° C | 85% | 1010 hPa | 0.51 mm | 1.79 m/s, 258° | - | - |
| 1778025603 | 16.67° C | 85% | 1010 hPa | 0.51 mm | 3.13 m/s, 237° | - | - |
| 1778025303 | 16.67° C | 85% | 1010.3 hPa | 0.51 mm | 3.58 m/s, 229° | - | - |
| 1778025003 | 17.22° C | 85% | 1010.3 hPa | 0.51 mm | 3.58 m/s, 213° | - | - |
| 1778024703 | 17.22° C | 84% | 1010.5 hPa | 0.51 mm | 3.58 m/s, 204° | - | - |
| 1778024403 | 17.22° C | 84% | 1010.4 hPa | 0.51 mm | 3.13 m/s, 204° | - | - |
| 1778024103 | 17.78° C | 83% | 1010.4 hPa | 0.51 mm | 2.24 m/s, 208° | - | - |
| 1778023803 | 18.33° C | 83% | 1010.3 hPa | 0.51 mm | 1.34 m/s, 213° | - | - |
| 1778023503 | 18.33° C | 82% | 1010.4 hPa | 0.51 mm | 0.89 m/s, 216° | - | - |
| 1778023203 | 18.33° C | 82% | 1010.4 hPa | 0.25 mm | 0.89 m/s, 226° | - | - |
| 1778022904 | 18.33° C | 82% | 1010.4 hPa | 0.25 mm | 0 m/s | - | - |
| 1778022603 | 17.78° C | 81% | 1010.8 hPa | 0.25 mm | 0 m/s | - | - |
* Rain latest hour (hover to see other rain measurements)
** Current wind speed in m/s (hover to see current wind gust speed)